Back to catalog

PEGASUS R/B

AlivePO
NORAD 23815·ROCKET BODY·🇺🇸 United States

Launched Mar 9, 1996 from Vandenberg Space Force Base

Loading…

Next Passes (next 24 hours)

TLE

FreshSource: Space-Track

Epoch: Sep 14, 2026, 03:50 UTC

1 23815U 96014B   26257.16000028  .00000130  00000-0  49833-4 0  9993
2 23815  89.9977 338.7663 0020947 197.5345 162.5128 14.25737159586336

Track PEGASUS R/B in real time with AllMySat

Download on the App Store